Location: Brompton
(51.4000°N, 0.5333°E)
Time: 15:03:38
(UTC+00:00)

USA 215 - Pass Details

Date: 01 October 2021
Orbit: 1102 x 1106 km, 123.0° (Epoch: 24 October)

Event Time Altitude Azimuth Distance (km) Brightness Sun altitude
Exits shadow 18:17:12 - 92° (E) 3,081 4.9 -7.4°
Reaches altitude 10° 18:17:31 10° 92° (E) 2,962 4.8 -7.4°
Maximum altitude 18:23:56 62° 14° (NNE) 1,230 3.5 -8.4°
Drops below altitude 10° 18:30:22 10° 296° (WNW) 2,965 6.9 -9.4°
Sets 18:32:52 0° 293° (WNW) 3,924 7.9 -9.8°
